Home > Weather > Randaberg > Past weeks

Flag for Norway Past Weather in Randaberg, Norway — Yesterday and Last 2 Weeks

Now
66 °F

Partly sunny.


Feels Like: 66 °F
Forecast: 59 / 62 °F
Wind: 7 mph from Southwest

Location: Stavanger / Sola

Current Time: Jul 25, 2016 at 7:56:27 PM

Latest Report: Jul 25, 2016 at 7:00 PM


Visibility: 13 mi

Pressure: 29.91 "Hg

Humidity: 80%

Dew Point: 60 °F

Location of RandabergLocation

Past Weather in Randaberg — Graph

°F

Randaberg Temperature Yesterday

Maximum temperature yesterday: 69 °F (at 1:00 PM)
Minimum temperature yesterday: 58 °F (at 4:00 AM)
Average temperature yesterday: 64 °F

High & Low Weather Summary for the Past Weeks

 TemperatureHumidityPressure
High79 °F (Jul 20, 3:00 PM)98% (Jul 22, 4:00 AM)30.16 "Hg (Jul 22, 4:00 AM)
Low51 °F (Jul 17, 2:00 AM)56% (Jul 20, 3:00 PM)29.44 "Hg (Jul 11, 7:00 AM)
Average62 °F83%29.92 "Hg
* Reported Jul 10 6:00 PM — Jul 25 6:00 PM, Randaberg, Weather by CustomWeather, © 2016

Note: Actual official high and low records may vary slightly from our data, if they occured in-between our weather recording intervals... More about our weather records

Advertising

Randaberg Weather History for the Previous 24 Hours

Scroll right to see more
 ConditionsComfort  
Time TempWeatherWind HumidityBarometerVisibility
6:00 PM
Mon, Jul 25
66 °FPartly sunny.9 mph86%29.90 "Hg7 mi
5:00 PM65 °FRain showers. Low clouds.6 mph91%29.89 "Hg12 mi
4:00 PM67 °FOvercast.9 mph80%29.89 "Hg19 mi
3:00 PM67 °FRain showers. Passing clouds.9 mph78%29.90 "Hg19 mi
2:00 PM68 °FScattered clouds.9 mph75%29.90 "Hg16 mi
1:00 PM70 °FPartly sunny.9 mph73%29.90 "Hg15 mi
12:00 PM69 °FScattered clouds.8 mph72%29.91 "Hg16 mi
11:00 AM69 °FPassing clouds.8 mph77%29.91 "Hg11 mi
10:00 AM70 °FScattered clouds.6 mph76%29.92 "Hg17 mi
9:00 AM69 °FPassing clouds.5 mph76%29.92 "Hg22 mi
8:00 AM66 °FPartly sunny.2 mph83%29.92 "Hg19 mi
7:00 AM65 °FRain showers. Passing clouds.1 mph83%29.93 "Hg22 mi
6:00 AM64 °FSunny.1 mph81%29.96 "Hg25 mi
5:00 AM64 °FPassing clouds.2 mph77%29.98 "Hg25 mi
4:00 AM64 °FPassing clouds.1 mph78%30.00 "Hg22 mi
3:00 AM64 °FOvercast.1 mph81%30.01 "Hg22 mi
2:00 AM64 °FPassing clouds.2 mph84%30.01 "Hg22 mi
1:00 AM64 °FPassing clouds.No wind84%30.03 "Hg16 mi
12:00 AM64 °FPassing clouds.1 mph81%30.04 "Hg25 mi
11:00 PM
Sun, Jul 24
65 °FPassing clouds.1 mph80%30.05 "Hg19 mi
10:00 PM65 °FPassing clouds.1 mph76%30.06 "Hg31 mi
9:00 PM66 °FPassing clouds.1 mph74%30.06 "Hg28 mi
8:00 PM66 °FPassing clouds.2 mph77%30.06 "Hg28 mi
7:00 PM66 °FPassing clouds.2 mph80%30.08 "Hg19 mi
Weather by CustomWeather, © 2016

See weather overviewHow to use our weather pages